[[{"header":{"parameterUnit":"m.s-1","parameterCategory":1,"la1":30.2991,"la2":30.254,"lo1":-89.0895,"lo2":-89.0444,"dy":0.0017,"dx":0.0017,"nx":28,"ny":28,"refTime":"2025-03-20T21:00:00:Z","depth":0,"parameterNumber":2,"parameterNumberName":"U-component_of_WINDS"},"data":[0,0,0,0,0,0,0,0,0,0,0,0,0,0,0,0,0,0,0,0,0,0,0,0,0,0,0,0,0,0,0,0,0,0,0,0,0,0,0,0,0,0,0,0,0,0,0,0,0,0,0,0,0,0,0,0,0,0,6.8757,6.8758,0,6.8865,6.8867,6.8868,6.8825,6.8822,6.8819,6.8817,6.8925,6.893,6.8936,0,0,0,0,0,0,0,0,0,0,0,0,0,6.8512,6.8517,6.8757,6.8758,6.876,6.8865,6.8867,6.8868,6.8825,6.8822,6.8819,6.8816,6.8924,6.893,6.8936,0,0,0,0,0,0,0,0,0,0,0,0,0,6.8619,6.8519,6.8757,6.8751,6.8752,6.8865,6.8867,6.8869,6.8826,6.8822,6.8818,6.8814,6.8922,6.8929,6.8937,6.9062,0,0,6.8961,6.8964,0,0,0,0,0,0,0,0,6.8613,6.8628,6.875,6.8752,6.8752,6.8828,6.882,6.8933,6.8827,6.8797,6.8817,6.8813,6.8896,6.8906,6.8934,6.9067,6.9071,6.8962,6.8967,6.897,6.8972,0,0,0,0,0,0,0,6.8606,6.8623,6.88,6.8752,6.8754,6.8743,6.8754,6.8841,6.8866,6.88,6.8797,6.881,6.8896,6.8927,6.8936,6.9073,6.8962,6.8969,6.8973,6.8976,6.9316,6.932,0,0,0,0,0,0,6.8599,6.8618,6.8796,6.8803,6.8672,6.875,6.8763,6.8807,6.8865,6.8871,6.8814,6.8808,6.8915,6.8927,6.894,6.9092,6.897,6.8977,6.8982,6.9312,6.9317,6.9322,0,0,0,0,0,0,6.8593,6.8615,6.8792,6.871,6.8731,6.8759,6.8809,6.8811,6.8842,6.8876,6.888,6.8841,6.8913,6.8929,6.9033,6.9095,6.8981,6.8988,6.9307,6.9314,6.932,6.9395,0,0,0,0,0,0,6.8587,6.8613,6.8661,6.8711,6.8736,6.8883,6.8813,6.8816,6.8856,6.885,6.8903,6.8908,6.8911,6.9021,6.904,6.9103,6.8994,6.9301,6.931,6.9318,6.9387,6.9403,6.9417,0,0,0,0,0,6.8578,6.8676,6.8663,6.8685,6.8796,6.8887,6.8901,6.8903,6.8862,6.891,6.8932,6.8906,6.9085,6.9032,6.9053,6.912,6.9298,6.9308,6.9317,6.938,6.94,6.9416,0,0,0,0,0,0,6.8631,6.8683,6.8669,6.8787,6.8833,6.8879,6.894,6.8924,6.8982,6.8973,6.8973,6.8986,6.9093,6.9117,6.9057,6.9245,6.9185,6.9199,6.9225,6.9244,6.9259,6.9251,6.9001,0,0,0,0,0,6.8657,6.8726,6.8768,6.8867,6.8892,6.8912,6.8952,6.895,6.8997,6.9016,6.9046,6.9092,6.9159,6.9203,6.9266,6.939,6.9402,6.9446,6.9461,6.9474,6.9486,6.9555,6.9576,6.9354,6.9354,6.9353,0,0,6.871,6.8747,6.879,6.8879,6.8915,6.8987,6.8929,6.9007,6.9061,6.9028,6.9128,6.9152,6.9204,6.9319,6.9371,6.9342,6.955,6.9486,6.9495,6.9501,6.9567,6.9588,6.9607,6.936,6.9359,6.9358,0,0,6.8844,6.8878,6.8966,6.9004,6.906,6.9073,6.9094,6.9144,6.9159,6.926,6.9238,6.9302,6.9417,6.9456,6.949,6.9643,6.9622,6.9663,6.9741,6.9809,6.9827,6.9842,6.9898,6.9918,6.9676,6.9676,6.9676,0,6.8902,6.9011,6.9013,6.9095,6.9135,6.9111,6.9201,6.9237,6.931,6.9338,6.9305,6.9451,6.9484,6.9608,6.9646,6.9675,6.97,6.9657,6.9824,6.984,6.9854,6.9907,6.9928,6.9681,6.968,6.968,6.9679,0,6.9081,6.9157,6.9222,6.9295,6.9342,6.9427,6.9443,6.9491,6.9487,6.9504,6.9608,6.9648,6.972,6.9749,6.9744,6.9875,6.9855,6.9823,6.9763,6.988,6.993,6.995,6.9688,6.9686,6.9684,6.9683,0,0,6.9249,6.9325,6.9349,6.9383,6.9444,6.9503,6.9587,6.9659,6.9701,6.9753,6.9825,6.9924,6.9896,6.9936,6.9935,6.9995,7.0115,6.9956,6.9957,6.9985,7.0263,7.0287,7.031,7.0102,7.0106,7.0109,7.0259,0,6.9389,6.9538,6.9545,6.9681,6.9752,6.9732,6.9806,6.9851,6.987,6.9934,6.9954,7.0025,6.9982,7.0006,7.0064,7.0088,7.0171,7.0077,7.0169,7.0172,7.0156,7.0336,7.0361,7.05,7.0278,7.0281,7.0284,0,6.9571,6.9631,6.9775,6.9828,6.9858,6.9925,6.9993,7.0053,7.0105,7.0115,7.0161,7.0153,7.024,7.0178,7.0299,7.0236,7.0274,7.0291,7.0297,7.0305,7.0235,7.035,7.0545,7.0566,7.0314,7.0312,7.031,0,6.9681,6.9797,6.9899,6.9929,6.9993,7.0041,7.007,7.0118,7.0162,7.0221,7.025,7.0318,7.0355,7.0409,7.0419,7.0373,7.0542,7.0479,7.0552,7.0552,7.0588,7.0586,7.0793,7.0613,7.0612,7.0612,7.0611,0,6.9836,6.9925,6.995,7.0012,7.0112,7.0119,7.0218,7.0243,7.0287,7.0355,7.0341,7.0404,7.0415,7.0481,7.049,7.059,7.0606,7.0617,7.0619,7.0619,7.0618,7.0643,7.0634,7.0617,7.0616,7.0615,7.0614,0,6.9975,6.9995,7.0105,7.0158,7.0174,7.0245,7.029,7.0351,7.037,7.0455,7.0476,7.0505,7.0583,7.0599,7.069,7.0697,7.0816,7.0807,7.0799,7.0798,7.087,7.0864,7.1101,7.1133,7.0932,7.0934,7.0935,0,7.0073,7.0142,7.0203,7.0248,7.028,7.0352,7.0397,7.0407,7.0455,7.0521,7.0574,7.0651,7.0712,7.0837,7.0866,7.0937,7.093,7.1009,7.0941,7.094,7.0933,7.0929,7.0936,7.1022,7.1024,7.1026,7.1027,0,7.0245,7.0253,7.0319,7.039,7.0445,7.0501,7.0554,7.0591,7.0609,7.0663,7.0743,7.0792,7.0887,7.0963,7.1034,7.1064,7.1049,7.1049,7.1069,7.107,7.1063,7.1069,7.0835,7.1043,7.1041,7.104,7.1039,7.1038,7.0367,7.0428,7.0482,7.0557,7.0598,7.0649,7.0709,7.0737,7.0804,7.0883,7.0885,7.0972,7.1025,7.1119,7.1154,7.1223,7.1198,7.1228,7.1235,7.1243,7.125,7.1052,7.1235,7.1235,7.1235,7.1234,7.1234,0,7.054,7.0574,7.0643,7.0719,7.0779,7.0761,7.082,7.087,7.0948,7.0999,7.1061,7.1154,7.1229,7.1265,7.1339,7.1388,7.1383,7.1407,7.1403,7.1411,7.1267,7.1242,7.141,7.141,7.141,7.1409,7.1409,7.1409,7.0636,7.0739,7.0753,7.0877,7.091,7.0997,7.1032,7.108,7.112,7.1225,7.1288,7.1312,7.1357,7.1435,7.1503,7.1512,7.154,7.1568,7.1573,7.1438,7.1421,7.1403,7.138,7.1574,7.1574,7.1711,7.1713,7.1714]},{"header":{"parameterUnit":"m.s-1","parameterCategory":1,"la1":30.2991,"la2":30.254,"lo1":-89.0895,"lo2":-89.0444,"dy":0.0017,"dx":0.0017,"nx":28,"ny":28,"refTime":"2025-03-20T21:00:00:Z","depth":0,"parameterNumber":3,"parameterNumberName":"V-component_of_WINDS"},"data":[0,0,0,0,0,0,0,0,0,0,0,0,0,0,0,0,0,0,0,0,0,0,0,0,0,0,0,0,0,0,0,0,0,0,0,0,0,0,0,0,0,0,0,0,0,0,0,0,0,0,0,0,0,0,0,0,0,0,-6.4541,-6.4542,0,-6.467,-6.4672,-6.4673,-6.4656,-6.4654,-6.4652,-6.465,-6.4779,-6.4784,-6.479,0,0,0,0,0,0,0,0,0,0,0,0,0,-6.4278,-6.4283,-6.4541,-6.4543,-6.4544,-6.467,-6.4672,-6.4674,-6.4657,-6.4654,-6.4651,-6.4649,-6.4777,-6.4784,-6.479,0,0,0,0,0,0,0,0,0,0,0,0,0,-6.4398,-6.4284,-6.4541,-6.4551,-6.4553,-6.467,-6.4672,-6.4674,-6.4657,-6.4654,-6.4651,-6.4648,-6.4775,-6.4783,-6.4791,-6.4905,0,0,-6.4816,-6.4819,0,0,0,0,0,0,0,0,-6.4391,-6.4408,-6.4548,-6.455,-6.4553,-6.4644,-6.4626,-6.4751,-6.4658,-6.4618,-6.465,-6.4646,-6.4736,-6.4747,-6.4779,-6.4911,-6.4916,-6.4816,-6.4821,-6.4825,-6.4827,0,0,0,0,0,0,0,-6.4383,-6.4402,-6.4592,-6.455,-6.4553,-6.4549,-6.4562,-6.465,-6.4693,-6.4621,-6.462,-6.4636,-6.4737,-6.4771,-6.4781,-6.4918,-6.4816,-6.4823,-6.4828,-6.4832,-6.5153,-6.5156,0,0,0,0,0,0,-6.4372,-6.4395,-6.4588,-6.4596,-6.4463,-6.4556,-6.4571,-6.4618,-6.4692,-6.47,-6.4638,-6.4634,-6.4759,-6.4772,-6.4786,-6.4926,-6.4825,-6.4832,-6.4837,-6.5149,-6.5153,-6.5157,0,0,0,0,0,0,-6.4367,-6.439,-6.4583,-6.4496,-6.452,-6.4564,-6.4617,-6.4622,-6.4656,-6.4705,-6.4713,-6.4665,-6.4757,-6.4775,-6.4876,-6.493,-6.4836,-6.4843,-6.5145,-6.515,-6.5155,-6.5205,0,0,0,0,0,0,-6.4359,-6.4388,-6.4431,-6.4497,-6.4524,-6.4671,-6.462,-6.4627,-6.467,-6.4667,-6.4732,-6.474,-6.4755,-6.4864,-6.4884,-6.4939,-6.485,-6.514,-6.5147,-6.5154,-6.5199,-6.5211,-6.5222,0,0,0,0,0,-6.435,-6.4439,-6.4434,-6.4457,-6.458,-6.4674,-6.469,-6.4707,-6.4675,-6.4719,-6.4751,-6.4738,-6.4921,-6.4875,-6.4897,-6.4955,-6.5137,-6.5145,-6.5153,-6.5193,-6.5209,-6.5222,0,0,0,0,0,0,-6.4377,-6.4447,-6.4442,-6.4555,-6.4609,-6.4671,-6.4728,-6.4723,-6.4786,-6.4779,-6.4797,-6.4812,-6.4915,-6.4945,-6.4893,-6.5071,-6.5024,-6.5037,-6.5047,-6.5062,-6.5074,-6.5064,-6.4856,0,0,0,0,0,-6.4396,-6.4468,-6.4525,-6.4619,-6.4647,-6.4683,-6.4724,-6.4733,-6.4789,-6.4811,-6.4851,-6.4905,-6.4975,-6.502,-6.5087,-6.5203,-6.5218,-6.5255,-6.5266,-6.5276,-6.5287,-6.5353,-6.537,-6.5184,-6.5184,-6.5184,0,0,-6.4436,-6.4484,-6.4527,-6.4626,-6.4669,-6.4742,-6.4702,-6.478,-6.4835,-6.4823,-6.4922,-6.4953,-6.5015,-6.5125,-6.5175,-6.5153,-6.5342,-6.5286,-6.5294,-6.53,-6.5363,-6.5381,-6.5396,-6.519,-6.5189,-6.5188,0,0,-6.4548,-6.459,-6.4675,-6.4719,-6.4785,-6.4809,-6.4829,-6.4893,-6.4914,-6.5014,-6.5007,-6.5072,-6.5191,-6.5237,-6.5275,-6.5407,-6.5397,-6.5428,-6.5489,-6.5553,-6.5568,-6.5581,-6.5629,-6.5646,-6.5439,-6.5439,-6.5439,0,-6.4589,-6.47,-6.4718,-6.4799,-6.4843,-6.4837,-6.4923,-6.4965,-6.5049,-6.5079,-6.5054,-6.5206,-6.5247,-6.5368,-6.5401,-6.5432,-6.5456,-6.542,-6.5564,-6.5578,-6.559,-6.5636,-6.5654,-6.5442,-6.5442,-6.5441,-6.5441,0,-6.4748,-6.4825,-6.4885,-6.4969,-6.502,-6.5102,-6.5133,-6.5183,-6.5188,-6.5214,-6.5317,-6.5367,-6.5445,-6.5474,-6.5479,-6.5597,-6.5582,-6.556,-6.5514,-6.5611,-6.5655,-6.5672,-6.5447,-6.5446,-6.5445,-6.5444,0,0,-6.4878,-6.4973,-6.4995,-6.5034,-6.5108,-6.5167,-6.525,-6.5328,-6.5371,-6.543,-6.55,-6.5603,-6.5585,-6.5628,-6.5638,-6.5694,-6.5797,-6.5666,-6.5668,-6.569,-6.5933,-6.5949,-6.5969,-6.5792,-6.5795,-6.5798,-6.5928,0,-6.4997,-6.5145,-6.5165,-6.5296,-6.5368,-6.5366,-6.5438,-6.5491,-6.5519,-6.5584,-6.5614,-6.5688,-6.5657,-6.5684,-6.5739,-6.5773,-6.5846,-6.5764,-6.5858,-6.5861,-6.5843,-6.5991,-6.6008,-6.6128,-6.5945,-6.5948,-6.595,0,-6.5155,-6.5221,-6.5359,-6.5426,-6.5457,-6.5522,-6.5596,-6.5659,-6.5719,-6.5736,-6.5786,-6.579,-6.5876,-6.5827,-6.5947,-6.589,-6.593,-6.5953,-6.5958,-6.5967,-6.5911,-6.6005,-6.6166,-6.6185,-6.5977,-6.5974,-6.5972,0,-6.5237,-6.536,-6.546,-6.5493,-6.5572,-6.5619,-6.5654,-6.5711,-6.5758,-6.5823,-6.5853,-6.5926,-6.5967,-6.6024,-6.6047,-6.6009,-6.6166,-6.6118,-6.6182,-6.6182,-6.6215,-6.6213,-6.6386,-6.624,-6.624,-6.624,-6.6239,0,-6.5368,-6.5453,-6.5498,-6.5559,-6.5655,-6.5678,-6.5772,-6.5805,-6.5858,-6.5925,-6.5927,-6.599,-6.6018,-6.6085,-6.6104,-6.6202,-6.6219,-6.6235,-6.6239,-6.6235,-6.6234,-6.6261,-6.6254,-6.6244,-6.6243,-6.6242,-6.6242,0,-6.5476,-6.5509,-6.5618,-6.5685,-6.5705,-6.5772,-6.583,-6.589,-6.5918,-6.6004,-6.6025,-6.6069,-6.6149,-6.6179,-6.6276,-6.6289,-6.6401,-6.6398,-6.6381,-6.6383,-6.6445,-6.6439,-6.6642,-6.6671,-6.6506,-6.6508,-6.6509,0,-6.5557,-6.5623,-6.5699,-6.5745,-6.5783,-6.5857,-6.5905,-6.593,-6.598,-6.6056,-6.6107,-6.6187,-6.6253,-6.6381,-6.6422,-6.6496,-6.6496,-6.6562,-6.6506,-6.6501,-6.6498,-6.6494,-6.6501,-6.6572,-6.6573,-6.6575,-6.6576,0,-6.5699,-6.5713,-6.5783,-6.586,-6.5918,-6.5979,-6.6038,-6.6076,-6.611,-6.6167,-6.625,-6.6301,-6.6402,-6.6482,-6.6559,-6.6595,-6.6592,-6.6593,-6.6612,-6.6609,-6.6597,-6.6605,-6.641,-6.6588,-6.6587,-6.6586,-6.6585,-6.6585,-6.5797,-6.5856,-6.5919,-6.5998,-6.6046,-6.6102,-6.6162,-6.6199,-6.6269,-6.6354,-6.6365,-6.6455,-6.6516,-6.662,-6.6659,-6.6729,-6.6711,-6.6738,-6.6745,-6.6752,-6.6757,-6.6586,-6.6743,-6.6743,-6.6743,-6.6743,-6.6742,0,-6.5939,-6.5981,-6.6053,-6.6137,-6.6199,-6.6193,-6.6259,-6.6311,-6.639,-6.6448,-6.6514,-6.661,-6.6689,-6.6736,-6.6815,-6.6862,-6.6863,-6.6882,-6.6879,-6.6888,-6.6768,-6.6744,-6.6881,-6.6881,-6.6881,-6.6881,-6.6881,-6.688,-6.6021,-6.6122,-6.6144,-6.6269,-6.6309,-6.6398,-6.6437,-6.6489,-6.6536,-6.6644,-6.671,-6.6741,-6.6795,-6.6878,-6.695,-6.6962,-6.6991,-6.7012,-6.7023,-6.691,-6.6896,-6.6882,-6.686,-6.7018,-6.7019,-6.7137,-6.7138,-6.7139]}]]